Regional Weather Roundup
Issued by NWS

Home | Current Version | Previous Version | Text Only | Print | Product List | Glossary Off
Versions: 1 2 3 4 5 6 7 8 9 10 11 12 13 14 15 16 17 18 19 20 21 22 23 24 25 26 27 28 29 30 31 32 33 34 35 36 37 38 39 40 41 42 43 44 45 46 47 48 49 50

000
ASUS44 KMEG 210410
RWRTN
TENNESSEE HOURLY STATE WEATHER ROUNDUP
NATIONAL WEATHER SERVICE MEMPHIS TN
1000 PM CST MON FEB 20 2017

TNZ002-004-019-021-049-052-054-088>092-210500-
WEST TENNESSEE

CITY           SKY/WX    TMP DP  RH WIND       PRES   REMARKS
MEMPHIS INTL   CLOUDY    70  51  51 SE12      29.91F
NWS MEMPHIS      N/A     67 N/A N/A MISG        N/A
JACKSON        MOCLDY    64  51  62 S3        29.96F
UNION CITY     CLEAR     64  45  48 CALM      29.95S
PARIS          CLEAR     61  48  63 SE7       29.99S
HUNTINGDON     CLEAR     64  50  59 SE6       29.97F
$$

TNZ008-025-027-028-033-062-065-066-210500-
NORTH MIDDLE TENNESSEE

CITY           SKY/WX    TMP DP  RH WIND       PRES   REMARKS
NASHVILLE      CLOUDY    62  43  49 SE8       30.04F
PORTLAND       CLEAR     59  45  58 SE6       30.04F
CLARKSVILLE    MOCLDY    59  46  62 SE6       30.01F
SMYRNA         CLOUDY    55  47  74 CALM      30.05F
COOKEVILLE     CLEAR     61  46  59 SE5       30.07F
GALLATIN       CLEAR     55  46  71 CALM      30.07F
CROSSVILLE     CLOUDY    52  44  74 CALM      30.12F
$$

TNZ061-075-076-078-094-096-097-210500-
SOUTH MIDDLE TENNESSEE

CITY           SKY/WX    TMP DP  RH WIND       PRES   REMARKS
FAYETTEVILLE   MOCLDY    61  50  67 SE6       30.06F HAZE
TULLAHOMA      CLEAR     61  45  55 SE5       30.07F
MCMINNVILLE    CLEAR     55  46  71 CALM      30.08F
COLUMBIA       CLEAR     63  48  59 SE3       30.02S
SHELBYVILLE    CLEAR     61  48  63 SE3       30.06F
$$

TNZ017-018-042-046-047-210500-
NORTHEAST TENNESSEE

CITY           SKY/WX    TMP DP  RH WIND       PRES   REMARKS
TRI CITIES     CLOUDY    46  37  71 CALM      30.16S
ELIZABETHTON   CLOUDY    46  37  71 CALM      30.16S
$$

TNZ012-013-036-069-073-074-210500-
CENTRAL EAST TENNESSEE

CITY           SKY/WX    TMP DP  RH WIND       PRES   REMARKS
KNOXVILLE      CLOUDY    54  44  69 CALM      30.11F
OAK RIDGE      PTCLDY    52  46  80 CALM      30.13F
GATLINBURG     CLEAR     46  41  81 CALM      30.13S
MORRISTOWN     PTCLDY    52  45  76 CALM      30.12F
JACKSBORO      CLEAR     48  45  87 CALM      30.15F
$$

TNZ083-085-099-210500-
SOUTHEAST TENNESSEE

CITY           SKY/WX    TMP DP  RH WIND       PRES   REMARKS
CHATTANOOGA    CLOUDY    53  48  83 CALM      30.11F
$$

SKY/WX REPORTED AS FAIR MEANS FEW OR NO CLOUDS BELOW
12 THOUSAND FEET.





USA.gov is the U.S. government's official web portal to all federal, state and local government web resources and services.